Powrót do katalogu

STARLINK-30273

AktywnyŁącznośćVLEO
NORAD 57681·PAYLOAD·🇺🇸 United States

Wystrzelony Aug 22, 2023 z Vandenberg Space Force Base

Loading…

Następne Przeloty (najbliższe 24 godziny)

TLE

ŚwieżeSource: CelesTrak SupGP

Epoka: Sep 14, 2026, 21:21 UTC

1 57681C 23124U   26257.89006944  .00063855  00000+0  16965-2 0  2573
2 57681  53.1553  45.5058 0002288 279.5661 162.8292 15.37663243    15

Śledź STARLINK-30273 w czasie rzeczywistym z AllMySat

Download on the App Store